RH
91 43 40 35 28 28 32 38 58 75 85 79 69 69 63 53 47 43 36 29 26 27 29 38 40 31 27 28 40 72 76 83 83 73 66 68 70 66 69 70 53 54 52
82 88 36 38 30 30 31 41 43 41 44 60 55 60 61 56 47 38 32 24 20 18 22 39 43 43 39 37 40 40 37 71 92 91 83 84 90 82 75 72 62 55 38
45 51 51 46 46 38 36 47 48 90 99 51 38 40 47 51 49 48 31 24 21 24 35 45 52 52 51 47 48 52 55 38 55 83 74 80 80 58 46 54 61 45 33
33 46 49 82 81 56 55 53 61 100 99 61 59 55 41 30 25 27 30 25 22 21 40 67 73 74 63 59 53 54 42 42 43 50 52 46 41 37 32 42 57 49 53
33 47 57 78 87 95 91 98 83 87 80 70 48 17 14 15 14 15 17 22 21 21 39 60 68 87 82 72 63 53 50 51 60 67 70 66 55 44 54 47 33 39 65
52 55 47 59 89 95 84 91 70 44 49 41 17 19 21 19 17 20 18 20 23 26 45 72 71 99 95 84 69 65 71 80 78 93 100 88 58 50 45 44 40 50 50
54 56 56 77 88 91 89 70 90 79 37 19 26 37 37 34 23 21 24 31 35 35 38 38 50 63 67 67 83 92 92 100 100 100 100 96 79 64 54 59 55 49 74
89 58 68 88 100 84 54 59 52 34 21 26 25 38 37 47 43 65 71 93 86 63 54 65 76 98 100 100 99 99 100 100 100 99 93 91 72 54 51 48 44 45 54
93 70 90 95 100 73 49 38 21 20 23 36 24 31 49 60 44 53 76 99 100 100 100 100 100 100 100 100 100 100 100 100 100 100 100 90 66 56 50 43 37 36 34
92 100 100 100 100 63 52 52 48 38 27 36 31 23 37 46 48 52 53 69 93 98 76 82 100 100 100 100 100 100 100 100 100 100 91 67 48 42 38 27 24 21 20
100 100 100 100 100 73 47 53 58 43 33 41 64 34 31 51 30 44 42 51 44 62 87 97 100 94 100 100 100 100 100 100 97 77 56 42 36 32 28 26 28 29 28
100 100 100 100 99 69 58 67 51 39 38 48 76 66 54 42 50 45 71 79 98 100 100 100 100 100 100 100 100 100 94 85 66 41 31 29 28 28 26 26 26 22 24
100 100 100 100 100 97 83 60 42 44 43 77 83 100 99 71 59 69 70 92 100 100 100 100 100 100 100 100 96 81 61 55 40 28 29 31 30 29 34 33 32 25 23
88 100 100 97 92 100 100 78 45 36 47 50 53 58 99 100 100 90 69 69 94 100 100 100 100 91 83 75 76 76 71 70 53 35 30 33 38 38 38 36 32 30 27
39 70 96 100 98 100 100 100 90 65 54 65 68 81 85 99 100 100 100 100 100 88 91 99 97 100 100 96 100 86 80 76 68 49 45 42 42 45 44 44 43 41 40
39 42 51 100 100 93 94 99 100 100 100 100 100 100 100 97 95 94 100 99 85 77 76 63 53 50 60 60 51 42 41 44 46 46 51 64 72 71 69 62 54 52 55
51 34 47 64 100 100 96 88 100 100 100 100 100 100 100 100 100 100 100 100 97 87 87 86 85 74 68 68 60 56 58 62 75 86 92 92 85 78 76 72 63 64 59
74 50 40 47 78 100 100 100 93 90 89 88 88 89 79 76 62 64 68 59 64 86 79 72 95 100 100 100 94 76 72 65 51 43 38 32 30 36 35 36 40 36 42
93 83 81 75 69 71 96 100 100 93 74 68 65 71 77 70 64 76 82 100 97 98 91 98 97 97 84 67 50 36 29 28 32 34 36 33 30 30 31 37 42 48 46
100 100 90 76 78 78 75 96 100 100 100 100 100 100 100 100 100 100 100 100 100 100 100 89 73 61 49 41 39 33 37 36 27 30 35 39 46 58 67 70 66 62 55
100 91 100 82 71 76 81 100 100 100 100 100 100 100 100 100 100 100 100 100 100 97 87 82 71 59 57 52 43 44 32 26 28 35 35 47 56 78 96 78 49 44 41
100 98 76 76 83 97 84 75 84 88 94 99 98 98 99 100 100 100 100 98 100 100 89 79 90 88 75 59 49 40 39 43 51 60 70 92 94 65 43 36 37 37 33
94 100 100 97 92 85 63 64 69 74 82 89 88 86 85 78 74 71 78 83 79 76 72 74 88 91 73 37 32 30 40 57 82 92 64 44 48 36 34 34 42 38 35
86 81 80 100 100 100 99 90 80 69 64 63 78 84 88 82 80 80 92 97 99 96 95 74 62 61 56 52 75 92 77 74 62 55 58 48 36 37 34 32 31 31 29
76 90 93 67 86 100 100 100 100 100 80 70 64 68 80 87 92 93 95 87 86 82 78 85 73 67 78 93 77 79 70 65 47 39 44 41 35 34 34 30 31 36 39
94 94 85 95 82 69 79 100 100 100 100 100 100 100 100 95 91 95 98 96 94 92 86 92 92 90 92 77 77 58 46 39 42 38 35 32 36 38 44 46 46 43 41
Wind_Speed
44 49 45 45 46 47 48 50 50 51 51 50 49 49 49 49 49 49 49 48 48 50 49 48 48 46 44 45 45 47 48 46 46 48 50 50 50 50 50 49 49 48 47
46 48 47 46 47 46 47 47 47 48 51 51 51 51 51 52 52 50 48 47 47 47 49 50 49 48 48 46 43 42 44 44 44 43 44 45 44 45 46 48 46 47 45
44 44 46 44 47 47 47 45 42 39 42 45 48 48 48 51 53 53 52 51 49 48 46 47 48 48 47 46 44 45 46 45 43 43 45 45 44 47 45 44 45 45 46
45 44 46 41 41 43 44 44 41 42 42 42 42 45 49 52 54 54 54 55 55 51 48 47 48 46 47 48 48 47 48 49 47 46 46 46 45 45 44 43 44 47 45
43 42 44 47 45 45 43 43 44 46 44 41 44 49 51 54 55 56 57 58 56 53 51 49 48 49 51 52 52 52 50 48 46 45 46 48 48 44 43 41 44 46 44
41 42 43 41 41 42 45 48 44 42 40 42 45 47 47 52 53 51 52 55 55 52 51 48 48 47 49 49 49 48 45 46 44 42 45 46 44 44 42 45 43 42 42
42 41 42 38 40 43 43 41 40 39 40 39 39 38 41 42 42 41 42 41 43 46 47 46 45 44 45 43 44 45 45 44 44 44 43 45 45 47 48 46 46 44 39
44 41 40 39 42 42 41 41 43 42 38 35 35 36 36 36 36 35 33 32 34 36 37 38 36 38 39 41 43 44 48 49 43 45 44 45 48 52 50 48 46 44 39
40 41 44 45 47 43 42 41 41 40 37 36 37 35 36 36 38 37 30 29 28 30 29 33 35 41 46 48 49 51 52 48 50 47 47 50 53 52 50 49 47 46 43
43 45 51 55 52 45 45 45 43 41 40 41 38 39 37 38 40 40 33 31 28 31 33 34 39 43 47 48 50 53 52 48 45 47 50 53 54 52 50 51 49 49 50
40 45 46 45 47 47 47 46 45 45 43 42 42 42 40 42 40 36 36 37 37 37 39 41 44 48 51 55 53 50 46 47 46 49 53 55 57 58 57 54 55 53 54
37 41 48 49 49 50 49 48 47 46 46 46 44 46 46 43 44 42 41 41 40 43 45 49 52 51 49 46 47 48 53 52 52 54 57 61 63 64 63 62 62 60 59
37 35 43 50 53 52 53 50 48 49 48 47 46 47 48 49 48 49 47 46 47 48 50 51 51 52 54 56 60 57 56 57 58 60 62 65 66 66 67 68 68 67 66
39 34 41 44 50 56 56 54 52 50 46 46 48 50 50 48 49 52 53 53 53 54 55 55 58 60 62 64 63 63 64 64 67 69 70 71 73 76 78 76 75 72 71
49 45 39 42 43 51 55 52 54 51 51 51 52 52 50 51 55 56 58 61 64 63 65 67 67 68 68 67 68 70 71 71 74 76 77 78 80 82 80 80 79 79 79
52 49 46 39 43 46 50 51 54 55 55 57 57 57 57 59 61 61 62 64 65 67 68 70 70 72 72 73 74 75 76 78 82 83 83 86 88 87 86 86 88 87 87
56 53 50 50 49 48 49 51 53 54 54 54 54 54 55 57 59 62 66 67 66 66 66 67 71 72 73 74 77 80 82 82 85 87 87 82 82 82 85 87 88 87 86
61 58 58 56 56 55 55 55 55 58 60 61 64 63 65 67 69 69 68 68 69 70 75 77 79 78 76 73 76 76 79 81 82 82 83 84 84 84 86 87 88 89 89
65 63 62 63 63 61 60 60 62 63 64 66 65 66 69 71 72 73 74 76 77 79 76 75 76 79 80 82 83 84 83 83 85 85 86 88 88 88 89 91 92 94 96
66 68 69 66 65 65 65 66 69 69 68 68 67 68 70 72 75 77 79 80 80 79 79 80 83 84 84 85 85 85 87 89 91 93 94 94 93 93 96 98 100 102 102
72 72 69 69 71 69 70 70 72 73 72 73 74 75 76 79 80 80 82 82 82 82 81 83 86 88 89 89 91 93 94 96 97 99 99 103 104 103 104 109 111 112 112
72 77 73 72 74 74 76 77 77 78 78 80 81 81 81 82 82 84 86 87 86 87 89 89 92 95 95 95 97 99 100 102 105 108 110 109 113 116 120 119 122 124 122
68 76 79 80 80 77 77 79 80 81 83 85 86 87 89 90 90 90 90 91 93 94 94 93 93 95 98 103 105 106 107 108 111 112 118 120 118 124 114 104 95 94 96
57 69 79 80 80 81 82 83 83 85 88 88 88 89 89 90 92 93 92 91 92 95 96 100 102 103 107 108 110 111 114 116 120 120 122 125 109 100 96 94 93 91 90
64 67 69 72 81 84 85 86 86 88 90 90 91 91 91 92 93 94 95 97 98 101 103 103 106 108 109 111 114 116 119 119 122 114 100 104 102 94 87 85 79 76 76
71 74 72 73 73 79 85 87 91 92 92 91 92 93 94 95 96 97 99 100 101 102 105 107 107 110 111 114 113 117 120 116 105 103 97 88 79 75 72 71 69 68 67
Wind_Direction
259 259 258 261 262 263 264 263 262 263 265 266 268 270 271 272 272 272 271 268 268 266 265 266 267 267 266 268 268 268 271 272 273 273 274 275 274 274 277 278 278 277 276
254 261 265 266 266 266 267 266 266 268 269 270 270 271 272 272 272 273 269 267 269 270 266 264 264 265 266 267 267 272 271 270 271 272 274 273 273 275 276 275 277 278 278
258 263 268 267 271 271 267 265 265 269 271 269 270 272 272 271 272 271 270 268 267 267 266 266 265 266 266 269 269 269 270 270 270 270 274 273 272 273 274 276 274 274 277
259 259 263 268 272 269 266 266 262 267 267 272 273 273 273 271 270 270 267 267 268 266 265 262 264 264 265 266 267 270 272 271 269 271 272 273 273 274 276 276 279 278 278
259 257 259 262 261 259 260 264 263 264 266 270 273 273 273 272 272 269 266 265 264 263 263 262 262 262 265 267 269 272 273 272 270 273 274 272 274 275 275 278 279 280 279
259 261 257 257 263 268 269 265 268 268 263 270 270 272 271 269 270 269 266 262 261 260 259 260 261 264 266 268 271 270 271 271 273 274 276 275 277 279 277 281 281 277 277
267 263 259 258 268 274 270 267 266 262 265 266 271 271 274 277 274 268 263 262 264 262 260 262 262 264 267 268 269 270 272 272 274 275 273 274 278 280 282 282 281 278 277
268 264 255 262 268 267 266 262 262 262 260 262 270 268 276 275 274 265 261 265 266 263 260 261 262 266 268 269 269 269 269 273 272 275 272 273 277 280 277 276 275 273 271
269 263 260 262 268 258 262 262 261 259 263 261 264 271 271 269 273 269 259 260 262 257 257 263 267 270 270 270 268 270 270 269 272 271 268 271 276 279 277 273 270 268 272
268 267 263 262 263 253 255 261 263 264 265 260 261 267 267 268 266 266 262 260 262 268 266 263 265 265 265 266 266 264 268 268 266 269 274 276 277 275 275 277 270 271 275
272 269 262 260 253 253 255 259 264 262 260 257 259 261 263 264 263 263 264 263 263 269 269 269 269 269 266 264 264 264 265 269 272 274 277 279 279 278 277 275 278 277 279
274 265 259 256 254 254 255 259 262 259 260 256 256 258 259 261 263 260 258 262 264 264 269 270 272 272 269 263 264 266 271 271 272 275 279 281 281 280 279 278 279 280 280
272 272 265 260 260 259 257 256 256 257 259 260 258 256 257 261 259 258 258 258 260 262 262 262 265 265 263 267 272 273 276 277 278 279 278 278 280 283 281 278 279 281 284
267 273 271 267 264 262 259 258 258 262 262 261 260 257 254 252 255 259 261 261 260 263 262 264 267 268 268 270 271 273 273 273 275 276 278 280 280 280 282 281 281 280 281
265 266 275 266 265 265 263 258 257 258 259 261 258 258 257 255 256 255 255 255 257 260 261 263 265 266 266 267 268 270 270 271 273 274 275 276 277 278 279 279 279 279 278
266 265 266 267 261 262 264 263 257 260 259 260 262 264 264 261 259 259 260 260 260 261 263 266 268 267 266 267 269 271 271 272 271 272 274 274 274 274 274 275 276 277 277
263 263 262 263 262 262 261 260 262 261 262 262 264 265 263 265 263 262 261 263 266 268 270 272 273 270 269 270 269 270 270 270 273 274 275 276 278 278 277 276 276 275 276
268 262 260 259 260 262 261 260 260 260 258 258 258 255 254 257 260 261 265 266 268 269 271 272 271 270 270 269 272 276 275 276 278 278 277 277 278 278 278 278 277 277 275
269 267 263 260 259 259 263 264 264 263 261 262 264 265 266 266 265 266 268 268 269 271 272 271 270 270 273 275 276 277 279 280 281 281 282 283 282 281 280 279 278 277 274
266 266 265 264 262 261 260 260 263 262 262 264 266 267 266 265 265 265 266 268 268 269 269 270 272 273 274 276 278 281 282 284 285 285 284 284 284 282 281 280 279 279 277
266 263 264 262 263 262 262 262 262 263 264 265 265 265 265 265 264 266 267 268 269 270 272 273 274 276 278 279 281 282 284 284 284 285 284 284 284 282 280 279 280 280 278
266 266 263 262 261 262 263 263 263 264 265 264 263 263 265 266 267 267 267 268 269 271 271 274 276 278 280 283 285 285 284 285 284 284 283 281 281 281 281 280 279 276 275
266 265 266 266 265 265 264 265 265 266 267 267 267 269 268 268 269 270 270 270 270 272 274 277 280 281 283 282 282 283 282 283 283 283 283 284 284 284 282 281 279 278 273
270 269 266 264 264 264 264 264 264 265 265 267 269 270 270 272 273 274 275 274 275 276 277 277 277 279 279 280 280 281 282 283 283 285 285 284 285 288 283 280 278 276 274
274 269 265 265 262 260 261 262 262 263 265 266 267 268 269 271 272 273 273 273 274 274 275 276 277 278 279 280 282 285 286 286 287 288 287 286 286 284 281 278 278 277 276
276 274 267 259 260 261 260 259 260 262 262 262 265 267 267 268 270 271 272 274 274 274 275 276 277 279 280 282 284 286 289 289 289 289 288 286 282 280 279 278 277 275 274